{"data":{"norad_id":44076,"epoch":"2026-09-19T22:28:12.182304Z","epoch_age_seconds":70634,"freshness":"FRESH","line1":"1 44076U 19017A   26262.93625211 -.00000111  00000+0  00000+0 0  9998","line2":"2 44076   0.7772  82.4592 0003219 125.0433 205.4105  1.00272400 27595","mean_motion":1.002724,"eccentricity":0.0003219,"inclination_deg":0.7772,"raan_deg":82.4592,"arg_perigee_deg":125.0433,"mean_anomaly_deg":205.4105,"bstar":0,"rev_number":2759,"period_min":1436.0880960264,"perigee_km":35772.849783526,"apogee_km":35799.995326968,"semimajor_km":42164.559555247,"source":"CELESTRAK","updated_at":"2026-09-20T09:00:35.266372Z"}}